Date String (YYYY-MM-DD hh:mm:ss) UTC,Instrument flags,Ambient pressure (hPa),Sample flow (lpm),Bypass flow (lpm),Sample temperature (°C),Ambient temperature (°C),ASC tube jacket temperature (°C),LED temperature (°C),Box temperature (°C),Sample RH (%),Span deviation,Mass concentration (μg/m³),Mass concentration (μg/m³),Mass concentration (μg/m³)
DateTimeUTC,F1_M11,P_M11,Q1_M11,Q2_M11,T1_M11,T2_M11,T3_M11,T4_M11,T5_M11,U1_M11,ZSPAN_M11,X0_M11,X2_M11,X1_M11
2022-06-06 04:00:00,,0821.7,5.02,0.00,29.4,28.1,00.0,38.3,31.2,26.3,0000.0,0009.96,0003.75,0002.06
2022-06-06 04:01:00,,0821.6,5.00,0.00,29.4,28.2,00.0,38.3,31.3,26.1,0000.0,0009.94,0003.76,0002.04
2022-06-06 04:02:00,,0821.7,5.00,0.00,29.4,28.2,00.0,38.3,31.3,26.2,0000.0,0009.83,0003.74,0002.02
2022-06-06 04:03:00,,0821.7,5.01,0.00,29.4,28.3,00.0,38.3,31.3,26.4,0000.0,0009.72,0003.70,0002.00
2022-06-06 04:04:00,,0821.6,5.00,0.00,29.4,28.4,00.0,38.3,31.4,26.7,0000.0,0009.37,0003.63,0001.99
2022-06-06 04:05:00,,0821.6,5.00,0.00,29.5,28.4,00.0,38.3,31.4,27.8,0000.0,0008.90,0003.62,0001.99
2022-06-06 04:06:00,,0821.6,5.00,0.00,29.5,28.5,00.0,38.3,31.4,28.4,0000.0,0009.01,0003.66,0002.02
2022-06-06 04:07:00,,0821.6,4.99,0.00,29.5,28.5,00.0,38.3,31.4,28.7,0000.0,0009.17,0003.73,0002.06
2022-06-06 04:08:00,,0821.7,5.01,0.00,29.5,28.6,00.0,38.3,31.5,28.5,0000.0,0009.03,0003.74,0002.09
2022-06-06 04:09:00,,0821.7,5.00,0.00,29.6,28.6,00.0,38.4,31.5,28.6,0000.0,0008.68,0003.82,0002.14
2022-06-06 04:10:00,,0821.8,5.00,0.00,29.6,28.7,00.0,38.4,31.5,28.3,0000.0,0008.81,0003.87,0002.18
2022-06-06 04:11:00,,0821.8,5.01,0.00,29.6,28.7,00.0,38.4,31.5,28.7,0000.0,0008.95,0003.91,0002.20
2022-06-06 04:12:00,,0821.8,5.00,0.00,29.6,28.7,00.0,38.4,31.6,28.6,0000.0,0009.03,0003.96,0002.25
2022-06-06 04:13:00,,0821.8,5.00,0.00,29.6,28.8,00.0,38.4,31.6,27.6,0000.0,0008.92,0003.94,0002.28
2022-06-06 04:14:00,,0821.8,5.00,0.00,29.7,28.8,00.0,38.5,31.6,27.0,0000.0,0008.91,0003.97,0002.30
2022-06-06 04:15:00,,0821.9,5.00,0.00,29.7,28.8,00.0,38.5,31.7,26.6,0000.0,0009.02,0004.02,0002.32
2022-06-06 04:16:00,,0821.9,4.99,0.00,29.7,28.8,00.0,38.5,31.7,26.4,0000.0,0009.02,0004.03,0002.30
2022-06-06 04:17:00,,0821.8,5.00,0.00,29.7,28.9,00.0,38.5,31.7,25.8,0000.0,0009.00,0004.03,0002.28
2022-06-06 04:18:00,,0821.8,5.01,0.00,29.7,28.3,00.0,38.5,31.5,25.2,0000.0,0009.50,0004.04,0002.26
2022-06-06 04:19:00,,0821.8,4.99,0.00,29.6,27.5,00.0,38.4,31.3,25.5,0000.0,0009.50,0004.02,0002.25
2022-06-06 04:20:00,,0821.8,5.01,0.00,29.6,27.2,00.0,38.4,31.2,25.7,0000.0,0009.34,0003.95,0002.21
2022-06-06 04:21:00,,0821.8,4.98,0.00,29.5,27.2,00.0,38.4,31.1,25.9,0000.0,0009.07,0003.87,0002.19
2022-06-06 04:22:00,,0821.8,5.00,0.00,29.4,27.3,00.0,38.3,31.1,26.0,0000.0,0009.13,0003.87,0002.17
2022-06-06 04:23:00,,0821.8,5.00,0.00,29.4,27.4,00.0,38.3,31.1,26.0,0000.0,0009.17,0003.83,0002.13
2022-06-06 04:24:00,,0821.8,5.01,0.00,29.4,27.6,00.0,38.3,31.2,26.1,0000.0,0009.08,0003.77,0002.09
2022-06-06 04:25:00,,0821.8,5.00,0.00,29.4,27.7,00.0,38.3,31.2,26.2,0000.0,0009.09,0003.73,0002.07
2022-06-06 04:26:00,,0821.8,5.00,0.00,29.4,27.8,00.0,38.3,31.2,26.5,0000.0,0009.39,0003.74,0002.07
2022-06-06 04:27:00,,0821.8,5.00,0.00,29.4,27.9,00.0,38.3,31.2,26.6,0000.0,0009.73,0003.75,0002.08
2022-06-06 04:28:00,,0821.9,5.01,0.00,29.4,28.1,00.0,38.3,31.3,26.4,0000.0,0009.67,0003.75,0002.10
2022-06-06 04:29:00,,0821.8,5.01,0.00,29.4,28.1,00.0,38.3,31.3,26.4,0000.0,0009.33,0003.71,0002.09
2022-06-06 04:30:00,,0821.8,5.00,0.00,29.4,28.2,00.0,38.3,31.3,26.4,0000.0,0009.31,0003.66,0002.07
2022-06-06 04:31:00,,0821.8,5.00,0.00,29.4,28.3,00.0,38.3,31.3,26.3,0000.0,0009.43,0003.68,0002.08
2022-06-06 04:32:00,,0821.9,5.00,0.00,29.5,28.4,00.0,38.3,31.4,26.1,0000.0,0009.48,0003.71,0002.10
2022-06-06 04:33:00,,0821.9,5.01,0.00,29.5,28.4,00.0,38.3,31.4,26.0,0000.0,0009.44,0003.68,0002.09
2022-06-06 04:34:00,,0822.0,5.01,0.00,29.5,28.5,00.0,38.3,31.4,25.8,0000.0,0009.61,0003.66,0002.10
2022-06-06 04:35:00,,0821.9,4.99,0.00,29.5,28.5,00.0,38.3,31.4,25.6,0000.0,0009.99,0003.68,0002.10
2022-06-06 04:36:00,,0822.0,4.99,0.00,29.5,28.5,00.0,38.4,31.5,25.8,0000.0,0010.26,0003.74,0002.10
2022-06-06 04:37:00,,0822.0,5.00,0.00,29.6,28.6,00.0,38.4,31.5,27.4,0000.0,0010.16,0003.78,0002.13
2022-06-06 04:38:00,,0822.0,5.00,0.00,29.6,28.6,00.0,38.4,31.5,28.5,0000.0,0009.60,0003.75,0002.17
2022-06-06 04:39:00,,0821.9,5.00,0.00,29.6,28.6,00.0,38.4,31.5,28.4,0000.0,0009.73,0003.79,0002.18
2022-06-06 04:40:00,,0821.8,5.00,0.00,29.6,28.7,00.0,38.4,31.5,28.8,0000.0,0009.59,0003.83,0002.21
2022-06-06 04:41:00,,0821.8,5.01,0.00,29.6,28.7,00.0,38.4,31.5,27.7,0000.0,0009.26,0003.84,0002.25
2022-06-06 04:42:00,,0821.8,5.01,0.00,29.7,28.7,00.0,38.5,31.6,26.7,0000.0,0009.45,0003.83,0002.26
2022-06-06 04:43:00,,0821.8,4.99,0.00,29.7,28.8,00.0,38.5,31.6,26.4,0000.0,0009.92,0003.84,0002.25
2022-06-06 04:44:00,,0821.8,5.00,0.00,29.7,28.8,00.0,38.5,31.6,26.0,0000.0,0009.78,0003.82,0002.26
2022-06-06 04:45:00,,0821.9,5.01,0.00,29.7,28.8,00.0,38.5,31.7,25.8,0000.0,0009.40,0003.84,0002.27
2022-06-06 04:46:00,,0821.9,5.00,0.00,29.7,28.8,00.0,38.5,31.7,25.6,0000.0,0009.15,0003.85,0002.29
2022-06-06 04:47:00,,0822.0,4.99,0.00,29.8,28.8,00.0,38.5,31.7,25.4,0000.0,0009.00,0003.84,0002.32
2022-06-06 04:48:00,,0821.8,5.00,0.00,29.8,28.9,00.0,38.6,31.7,25.3,0000.0,0008.83,0003.82,0002.34
2022-06-06 04:49:00,,0821.8,5.00,0.00,29.8,28.9,00.0,38.6,31.7,25.2,0000.0,0009.14,0003.83,0002.33
2022-06-06 04:50:00,,0821.8,4.99,0.00,29.8,28.9,00.0,38.6,31.7,25.1,0000.0,0009.18,0003.79,0002.32
2022-06-06 04:51:00,,0821.8,5.00,0.00,29.8,28.4,00.0,38.6,31.6,24.9,0000.0,0009.15,0003.75,0002.32
2022-06-06 04:52:00,,0821.8,5.00,0.00,29.7,27.6,00.0,38.5,31.4,25.1,0000.0,0009.33,0003.79,0002.32
2022-06-06 04:53:00,,0821.8,5.01,0.00,29.7,27.3,00.0,38.5,31.3,25.2,0000.0,0009.11,0003.82,0002.32
2022-06-06 04:54:00,,0821.8,4.99,0.00,29.6,27.2,00.0,38.4,31.2,25.6,0000.0,0008.71,0003.82,0002.33
2022-06-06 04:55:00,,0821.8,5.00,0.00,29.5,27.3,00.0,38.4,31.2,25.6,0000.0,0008.74,0003.84,0002.34
2022-06-06 04:56:00,,0821.8,5.01,0.00,29.5,27.4,00.0,38.4,31.2,25.5,0000.0,0008.81,0003.87,0002.34
2022-06-06 04:57:00,,0821.8,5.00,0.00,29.4,27.6,00.0,38.4,31.2,25.3,0000.0,0008.75,0003.88,0002.35
2022-06-06 04:58:00,,0821.8,4.99,0.00,29.4,27.7,00.0,38.4,31.2,25.2,0000.0,0008.66,0003.85,0002.34
2022-06-06 04:59:00,,0821.9,5.02,0.00,29.4,27.8,00.0,38.4,31.2,25.1,0000.0,0008.71,0003.86,0002.31
